Simultaneous Nadir Overpasses (SNOs) Predictions

Prediction of SNOs between LANDSAT-8 and METOP-B Satellite Orbit:

Table of predicted SNOs for the next 14.0 days since TLE Epoch: 12/10/2016
Index Date (LANDSAT-8) Time (LANDSAT-8) Lat,Lon (LANDSAT-8) SZA (LANDSAT-8 ) Date (METOP-B) Time (METOP-B) Lat,Lon (METOP-B) SZA (METOP-B ) Distance(km) Time Diff (sec)
1 12/12/2016 17:43:35 81.08, -46.74 106.22 12/12/2016 17:42:59 81.07, -46.93 106.19 3.29 36
2 12/12/2016 18:33:01 -81.10, 121.20 73.74 12/12/2016 18:33:38 -81.10, 121.22 73.71 0.77 37
3 12/15/2016 13:17:48 81.08, 19.78 106.36 12/15/2016 13:17:20 81.09, 19.86 106.36 1.45 28
4 12/15/2016 14:07:14 -81.10,-172.25 73.60 12/15/2016 14:08:00 -81.10,-172.32 73.58 1.23 46
5 12/18/2016 08:52:02 81.09, 86.26 106.43 12/18/2016 08:51:43 81.09, 86.26 106.42 0.20 19
6 12/18/2016 09:41:28 -81.11,-105.75 73.52 12/18/2016 09:42:23 -81.11,-105.89 73.52 2.45 55
7 12/21/2016 04:26:16 81.08, 152.69 106.43 12/21/2016 04:26:06 81.09, 152.64 106.42 0.96 10
8 12/21/2016 05:15:42 -81.11, -39.30 73.52 12/21/2016 05:16:46 -81.11, -39.48 73.51 3.23 64
9 12/23/2016 23:11:18 -80.68, 46.28 74.43 12/23/2016 23:10:04 -80.82, 45.85 74.38 16.68 74
10 12/24/2016 00:00:28 81.10,-140.56 106.42 12/24/2016 00:00:27 81.10,-140.63 106.41 1.43 1




NCC Satellite Simultaneous Nadir Overpasses (SNOs) Prediction Service
